Location: Amsterdam
(30.7274°N, 84.4357°W)
Time: 21:09:44
(UTC+00:00)

Transit 2A Rocket - Pass Details

Date: 21 February 2026
Orbit: 583 x 900 km, 66.7° (Epoch: 8 March)

Event Time Altitude Azimuth Distance (km) Brightness Sun altitude
Rises 05:13:35 0° 349° (N) 3,299 - -68.0°
Reaches altitude 10° 05:16:40 10° 5° (N) 2,304 - -68.3°
Maximum altitude 05:20:36 21° 54° (NE) 1,595 - -68.6°
Drops below altitude 10° 05:24:17 10° 103° (ESE) 2,136 - -68.9°
Sets 05:27:00 0° 120° (ESE) 2,990 - -69.0°
